Waarnemingen

Advertentie
Mijn weer
Capo Caccia, Italië (16522): temperatuur & dauwpunt: 08.08.2018 15:00:00 - 14.08.2018 15:00:00 (CEST)Capo Caccia, Italië (16522): windsnelheid: 08.08.2018 15:00:00 - 14.08.2018 15:00:00 (CEST)Capo Caccia, Italië (16522): windrichting: 08.08.2018 15:00:00 - 14.08.2018 15:00:00 (CEST)Capo Caccia, Italië (16522): luchtdruk: 08.08.2018 15:00:00 - 14.08.2018 15:00:00 (CEST)Capo Caccia, Italië (16522): zicht: 08.08.2018 15:00:00 - 14.08.2018 15:00:00 (CEST)Capo Caccia, Italië (16522): Zonneschijnduur: 08.08.2018 15:00:00 - 14.08.2018 15:00:00 (CEST)
Datum & Tijd tt [°C] td [°C] ff [km/u] ff [kn] dd ppp [hPa] vv [km] sd [min]
14.08.2018 15:00:00 27,0 22,2 18 10 WNW 1013,8 20 48
14.08.2018 14:00:00 26,8 21,8 18 10 NW 1014,1 20 48
14.08.2018 13:00:00 26,4 22,7 18 10 NW 1014,3 20 18
14.08.2018 12:00:00 26,0 22,3 15 8 NW 1014,3 20 30
14.08.2018 11:00:00 26,4 22,7 15 8 NW 1014,3 20 60
14.08.2018 10:00:00 26,2 23,1 18 10 NW 1014,2 20 60
14.08.2018 09:00:00 25,8 24,4 4 2 W 1014,0 20 18
14.08.2018 08:00:00 25,0 24,1 4 2 W 1013,3 20 18
14.08.2018 07:00:00 24,6 24,3 4 2 ZZO 1013,4 20 -
14.08.2018 06:00:00 24,6 24,3 5 3 W 1013,4 20 -
14.08.2018 05:00:00 24,6 23,4 4 2 W 1013,4 20 -
14.08.2018 04:00:00 25,2 23,4 4 2 NNW 1013,3 20 -
14.08.2018 03:00:00 24,6 23,6 5 3 NNW 1013,4 20 -
14.08.2018 02:00:00 25,2 23,3 11 6 NNW 1013,5 20 -
14.08.2018 01:00:00 25,4 24,5 11 6 NW 1013,5 20 -
14.08.2018 00:00:00 26,0 24,2 8 4 NW 1013,3 20 -
13.08.2018 23:00:00 26,0 24,4 4 2 WNW 1013,2 20 -
13.08.2018 22:00:00 26,0 23,9 4 2 NNO 1013,1 20 -
13.08.2018 21:00:00 26,0 23,7 9 5 NO 1012,9 20 -
13.08.2018 20:00:00 26,4 24,1 11 6 N 1012,9 20 24
13.08.2018 19:00:00 26,6 23,3 15 8 N 1013,0 20 18
13.08.2018 18:00:00 27,4 23,0 16 9 NNW 1013,1 20 30
13.08.2018 17:00:00 27,6 22,8 13 7 WNW 1013,4 20 12
13.08.2018 16:00:00 28,0 21,5 8 4 NW 1013,7 20 18
13.08.2018 15:00:00 28,8 22,3 15 8 WNW 1014,0 20 60
13.08.2018 14:00:00 29,0 22,0 4 2 WZW 1014,3 20 60
13.08.2018 13:00:00 28,4 24,4 8 4 W 1015,0 20 60
13.08.2018 12:00:00 28,0 25,2 5 3 Z 1015,1 20 60
13.08.2018 11:00:00 27,2 25,4 5 3 ZW 1015,2 20 60
13.08.2018 10:00:00 27,8 23,2 4 2 ZZW 1014,5 20 60
13.08.2018 09:00:00 27,0 20,3 5 3 O 1014,3 20 60
13.08.2018 08:00:00 25,2 20,0 5 3 NO 1014,5 20 36
13.08.2018 07:00:00 23,4 21,7 8 4 NO 1014,7 20 -
13.08.2018 06:00:00 23,2 22,7 9 5 NNO 1014,7 20 -
13.08.2018 05:00:00 23,2 22,5 11 6 NNO 1015,1 20 -
13.08.2018 04:00:00 23,6 22,8 11 6 NNO 1014,9 20 -
13.08.2018 03:00:00 24,0 23,3 18 10 NO 1015,2 20 -
13.08.2018 02:00:00 24,0 23,2 21 11 NO 1015,7 20 -
13.08.2018 01:00:00 24,0 23,5 22 12 NO 1016,3 20 -
13.08.2018 00:00:00 24,2 23,1 16 9 NO 1016,3 20 -
12.08.2018 23:00:00 25,0 22,2 21 11 NNO 1016,1 20 -
12.08.2018 22:00:00 25,0 22,5 16 9 N 1016,0 20 -
12.08.2018 21:00:00 26,0 23,1 21 11 NW 1015,7 20 60
12.08.2018 20:00:00 27,0 22,4 16 9 NNW 1015,8 20 60
12.08.2018 19:00:00 27,2 22,0 13 7 NNW 1016,2 20 60
12.08.2018 18:00:00 27,4 22,4 15 8 NW 1016,7 20 60
12.08.2018 17:00:00 27,6 21,6 11 6 NNW 1017,2 20 60
12.08.2018 16:00:00 27,6 21,4 15 8 NW 1017,4 20 60
12.08.2018 15:00:00 27,8 20,1 16 9 NW 1017,9 30 60
12.08.2018 14:00:00 27,8 20,9 15 8 WNW 1018,2 30 60
12.08.2018 13:00:00 27,6 21,6 15 8 WNW 1018,2 30 60
12.08.2018 12:00:00 27,4 21,9 11 6 WNW 1018,2 30 60
12.08.2018 11:00:00 27,4 22,4 8 4 NW 1018,2 20 60
12.08.2018 10:00:00 26,8 22,0 5 3 NW 1018,2 20 60
12.08.2018 09:00:00 26,0 21,7 4 2 NNW 1018,4 20 60
12.08.2018 08:00:00 25,0 21,3 4 2 NNO 1018,5 20 24
12.08.2018 07:00:00 24,0 21,3 4 2 NNW 1018,3 20 0
12.08.2018 06:00:00 24,0 21,3 8 4 N 1018,3 20 -
12.08.2018 05:00:00 24,0 20,7 9 5 N 1018,3 20 -
12.08.2018 04:00:00 24,0 20,9 9 5 N 1018,5 20 -
12.08.2018 03:00:00 24,0 20,9 9 5 NNO 1019,5 20 -
12.08.2018 02:00:00 24,0 21,1 11 6 N 1019,5 20 -
12.08.2018 01:00:00 24,8 21,9 5 3 NNO 1019,5 20 -
12.08.2018 00:00:00 25,0 22,1 8 4 NNO 1019,5 20 -
11.08.2018 23:00:00 25,0 22,1 8 4 N 1019,5 20 -
11.08.2018 22:00:00 25,4 22,5 9 5 N 1019,4 20 -
11.08.2018 21:00:00 26,0 21,2 11 6 N 1019,4 20 0
11.08.2018 20:00:00 26,4 22,0 11 6 NNW 1019,4 20 48
11.08.2018 19:00:00 27,4 21,9 15 8 NNW 1019,3 20 60
11.08.2018 18:00:00 28,0 22,0 15 8 NW 1019,2 20 60
11.08.2018 17:00:00 28,0 22,0 11 6 NNW 1020,3 20 60
11.08.2018 16:00:00 28,0 22,0 21 11 WNW 1020,3 20 60
11.08.2018 15:00:00 28,0 22,0 22 12 WNW 1020,8 20 60
11.08.2018 14:00:00 28,4 24,2 18 10 WNW 1020,9 20 60
11.08.2018 13:00:00 28,0 23,8 18 10 WNW 1021,2 20 60
11.08.2018 12:00:00 28,0 23,8 11 6 NNW 1021,2 20 60
11.08.2018 11:00:00 28,0 23,2 8 4 NNW 1021,2 20 60
11.08.2018 10:00:00 28,0 22,5 13 7 NNO 1021,2 20 60
11.08.2018 09:00:00 27,4 22,6 9 5 N 1021,0 20 60
11.08.2018 08:00:00 25,6 22,3 9 5 N 1020,6 20 30
11.08.2018 07:00:00 24,4 21,3 13 7 NNO 1020,7 20 -
11.08.2018 06:00:00 24,6 23,0 11 6 NNO 1020,9 20 -
11.08.2018 05:00:00 24,8 22,7 11 6 N 1021,1 20 -
11.08.2018 04:00:00 24,8 22,5 4 2 N 1021,5 20 -
11.08.2018 03:00:00 25,6 23,3 11 6 NNW 1021,5 20 -
11.08.2018 02:00:00 25,6 24,6 9 5 NNW 1022,0 20 -
11.08.2018 01:00:00 25,4 23,8 4 2 N 1022,0 20 -
11.08.2018 00:00:00 25,4 23,7 13 7 N 1021,6 20 -
10.08.2018 23:00:00 25,4 23,7 16 9 N 1021,5 20 -
10.08.2018 22:00:00 26,0 25,1 15 8 NNO 1021,2 20 -
10.08.2018 21:00:00 26,4 24,6 16 9 N 1020,5 20 -
10.08.2018 20:00:00 27,0 24,7 21 11 N 1020,4 20 36
10.08.2018 19:00:00 28,2 22,9 16 9 WNW 1020,3 20 60
10.08.2018 18:00:00 28,6 22,1 22 12 NW 1020,6 20 60
10.08.2018 17:00:00 29,0 21,8 18 10 WNW 1020,6 20 60
10.08.2018 16:00:00 29,6 22,3 15 8 WNW 1020,7 20 60
10.08.2018 15:00:00 31,0 23,1 13 7 NNW 1020,8 20 60
10.08.2018 14:00:00 32,2 22,9 13 7 NNO 1020,7 20 42
10.08.2018 13:00:00 31,0 23,4 9 5 NNO 1020,8 20 42
10.08.2018 12:00:00 31,0 23,7 18 10 NO 1020,8 20 48
10.08.2018 11:00:00 29,4 24,5 16 9 N 1020,7 20 48
10.08.2018 10:00:00 29,8 25,5 21 11 N 1020,5 15 60
10.08.2018 09:00:00 28,0 25,8 15 8 N 1020,2 20 60
10.08.2018 08:00:00 27,4 25,4 9 5 NNW 1019,8 20 24
10.08.2018 07:00:00 26,6 24,6 18 10 NW 1019,1 20 -
10.08.2018 06:00:00 26,2 24,1 11 6 WNW 1018,4 20 -
10.08.2018 05:00:00 26,4 22,2 5 3 W 1018,3 20 -
10.08.2018 04:00:00 26,2 23,5 4 2 NNO 1018,4 20 -
10.08.2018 03:00:00 26,0 25,1 21 11 O 1018,4 20 -
10.08.2018 02:00:00 26,0 25,1 22 12 ONO 1018,4 20 -
10.08.2018 01:00:00 26,2 24,8 18 10 NO 1019,2 20 -
10.08.2018 00:00:00 26,2 24,4 21 11 NNO 1019,2 20 -
09.08.2018 23:00:00 26,4 25,2 18 10 N 1018,5 20 -
09.08.2018 22:00:00 27,0 25,6 13 7 N 1018,3 20 -
09.08.2018 21:00:00 27,4 24,2 15 8 NNW 1017,4 20 -
09.08.2018 20:00:00 27,8 24,0 11 6 NW 1016,9 20 60
09.08.2018 19:00:00 28,4 24,2 11 6 NNW 1016,4 20 60
09.08.2018 18:00:00 28,8 23,9 16 9 WNW 1016,3 20 60
09.08.2018 17:00:00 29,0 23,4 11 6 W 1016,3 20 60
09.08.2018 16:00:00 29,0 23,9 8 4 W 1016,3 20 60
09.08.2018 15:00:00 28,6 24,0 5 3 WZW 1016,6 20 60
09.08.2018 14:00:00 28,8 24,1 8 4 WZW 1016,6 20 60
09.08.2018 13:00:00 28,8 23,9 8 4 WZW 1016,6 20 60
09.08.2018 12:00:00 27,6 23,6 5 3 ZZW 1016,7 20 60
09.08.2018 11:00:00 27,2 23,4 8 4 Z 1016,2 20 60
09.08.2018 10:00:00 26,4 22,7 11 6 ZZO 1016,3 20 60
09.08.2018 09:00:00 26,0 22,3 9 5 OZO 1016,3 20 60
09.08.2018 08:00:00 25,2 21,5 9 5 Z 1016,4 20 60
09.08.2018 07:00:00 25,0 21,3 9 5 Z 1015,4 20 -
09.08.2018 06:00:00 25,0 21,7 8 4 ZZO 1015,4 15 -
09.08.2018 05:00:00 25,0 22,5 13 7 ZZO 1015,4 15 -
09.08.2018 04:00:00 25,0 22,5 9 5 Z 1015,4 15 -
09.08.2018 03:00:00 25,0 23,2 11 6 ZO 1015,6 15 -
09.08.2018 02:00:00 24,2 23,5 11 6 ONO 1015,7 15 -
09.08.2018 01:00:00 25,2 25,0 11 6 NO 1015,7 15 -
09.08.2018 00:00:00 25,8 24,2 13 7 NNO 1015,5 15 -
08.08.2018 23:00:00 26,0 24,4 11 6 N 1015,5 15 -
08.08.2018 22:00:00 25,6 23,8 11 6 N 1015,6 15 -
08.08.2018 21:00:00 26,4 23,9 9 5 N 1015,3 20 0
08.08.2018 20:00:00 28,0 24,2 8 4 NNW 1014,7 20 48
08.08.2018 19:00:00 28,0 25,0 11 6 NW 1015,0 20 60
08.08.2018 18:00:00 28,0 25,0 13 7 NW 1015,1 20 60
08.08.2018 17:00:00 28,4 24,6 15 8 WNW 1015,3 20 60
08.08.2018 16:00:00 28,2 23,6 18 10 WNW 1015,3 20 -
08.08.2018 15:00:00 28,4 23,8 9 5 NW 1015,3 20 60

tt = temperatuur
td = dauwpunt
ff = windsnelheid
dd = windrichting
ppp = luchtdruk
vv = zicht
sd = Zonneschijnduur

Weerstations in de omgeving